| time (UTC) | temp F | wind direction | speed MPH | gust MPH | rain 1hr in | rain 24hr in | rain mn in | humidity % | barometer mb |
| 20260905055333 | 65 | 72 | 0.0 | 1.0 | 0.00 | 0.00 | 0.00 | 61 | 1021.2 |
| 20260905054531 | 65 | 39 | 0.0 | 1.0 | 0.00 | 0.00 | 0.00 | 60 | 1021.5 |
| 20260905054323 | 65 | 1 | 0.0 | 1.0 | 0.00 | 0.00 | 0.00 | 60 | 1020.9 |
| 20260905053816 | 65 | 32 | 0.0 | 2.0 | 0.00 | 0.00 | 0.00 | 59 | 1021.0 |
| 20260905053310 | 66 | 14 | 0.0 | 2.0 | 0.00 | 0.00 | 0.00 | 58 | 1021.0 |
| 20260905053025 | 66 | 360 | 0.0 | 1.0 | 0.00 | 0.00 | 0.00 | 57 | 1021.6 |
| 20260905052258 | 67 | 64 | 0.0 | 0.0 | 0.00 | 0.00 | 0.00 | 56 | 1020.9 |
| 20260905051541 | 67 | 123 | 0.0 | 0.0 | 0.00 | 0.00 | 0.00 | 54 | 1021.5 |
| 20260905051245 | 68 | 121 | 0.0 | 0.0 | 0.00 | 0.00 | 0.00 | 55 | 1020.9 |
| 20260905050740 | 68 | 121 | 0.0 | 0.0 | 0.00 | 0.00 | 0.00 | 54 | 1020.9 |
| 20260905050234 | 68 | 115 | 0.0 | 0.0 | 0.00 | 0.00 | 0.00 | 54 | 1020.9 |
| 20260905050033 | 68 | 117 | 0.0 | 0.0 | 0.00 | 0.00 | 0.00 | 53 | 1021.5 |
| 20260905045727 | 68 | 115 | 0.0 | 0.0 | 0.00 | 0.00 | 0.00 | 54 | 1021.0 |
| 20260905045221 | 68 | 117 | 0.0 | 2.0 | 0.00 | 0.00 | 0.00 | 54 | 1021.0 |
| 20260905044715 | 68 | 121 | 0.0 | 2.0 | 0.00 | 0.00 | 0.00 | 54 | 1021.3 |
| 20260905044534 | 67 | 87 | 0.0 | 2.0 | 0.00 | 0.00 | 0.00 | 54 | 1021.7 |
| 20260905043703 | 68 | 30 | 0.0 | 0.0 | 0.00 | 0.00 | 0.00 | 54 | 1021.2 |
| 20260905043159 | 68 | 41 | 0.0 | 0.0 | 0.00 | 0.00 | 0.00 | 53 | 1021.2 |
| 20260905043018 | 68 | 46 | 0.0 | 0.0 | 0.00 | 0.00 | 0.00 | 53 | 1021.6 |
| 20260905042146 | 70 | 41 | 0.0 | 0.0 | 0.00 | 0.00 | 0.00 | 52 | 1021.2 |
| 20260905041527 | 70 | 42 | 0.0 | 1.0 | 0.00 | 0.00 | 0.00 | 50 | 1021.6 |
| 20260905041134 | 71 | 35 | 0.0 | 2.0 | 0.00 | 0.00 | 0.00 | 50 | 1021.0 |
| 20260905040121 | 71 | 75 | 2.0 | 5.0 | 0.00 | 0.00 | 0.00 | 49 | 1021.0 |
| 20260905040029 | 71 | 96 | 0.0 | 9.0 | 0.00 | 0.00 | 0.00 | 49 | 1021.7 |
| 20260905035615 | 72 | 79 | 3.0 | 8.0 | 0.00 | 0.00 | 0.00 | 49 | 1021.0 |
| 20260905035109 | 71 | 124 | 3.0 | 8.0 | 0.00 | 0.00 | 0.00 | 48 | 1021.0 |
| 20260905034604 | 71 | 105 | 3.0 | 8.0 | 0.00 | 0.00 | 0.00 | 48 | 1021.0 |
| 20260905034535 | 71 | 94 | 4.0 | 9.0 | 0.00 | 0.00 | 0.00 | 47 | 1021.7 |
| 20260905034058 | 71 | 61 | 1.0 | 6.0 | 0.00 | 0.00 | 0.00 | 46 | 1021.0 |
| 20260905033551 | 71 | 91 | 1.0 | 5.0 | 0.00 | 0.00 | 0.00 | 44 | 1020.9 |
| 20260905033045 | 71 | 143 | 1.0 | 5.0 | 0.00 | 0.00 | 0.00 | 43 | 1020.8 |
| 20260905033032 | 71 | 105 | 1.0 | 5.0 | 0.00 | 0.00 | 0.00 | 43 | 1021.5 |
| 20260905032540 | 72 | 89 | 1.0 | 3.0 | 0.00 | 0.00 | 0.00 | 43 | 1020.8 |
| 20260905032033 | 72 | 94 | 1.0 | 3.0 | 0.00 | 0.00 | 0.00 | 42 | 1020.8 |
| 20260905031528 | 72 | 84 | 1.0 | 4.0 | 0.00 | 0.00 | 0.00 | 42 | 1020.8 |
| 20260905031523 | 72 | 118 | 0.0 | 4.0 | 0.00 | 0.00 | 0.00 | 41 | 1021.5 |
| 20260905031021 | 73 | 96 | 1.0 | 5.0 | 0.00 | 0.00 | 0.00 | 42 | 1020.8 |
| 20260905030009 | 73 | 87 | 1.0 | 5.0 | 0.00 | 0.00 | 0.00 | 41 | 1020.7 |
| 20260905030004 | 73 | 91 | 1.0 | 6.0 | 0.00 | 0.00 | 0.00 | 40 | 1021.5 |
| 20260905025504 | 74 | 63 | 1.0 | 4.0 | 0.00 | 0.00 | 0.00 | 40 | 1020.6 |
| 20260905024510 | 74 | 102 | 3.0 | 11.0 | 0.00 | 0.00 | 0.00 | 38 | 1021.3 |
| 20260905024452 | 74 | 106 | 2.0 | 10.0 | 0.00 | 0.00 | 0.00 | 38 | 1020.6 |
| 20260905023946 | 75 | 84 | 1.0 | 10.0 | 0.00 | 0.00 | 0.00 | 38 | 1020.3 |
| 20260905023440 | 76 | 145 | 0.0 | 2.0 | 0.00 | 0.00 | 0.00 | 37 | 1020.1 |
| 20260905023013 | 75 | 158 | 0.0 | 4.0 | 0.00 | 0.00 | 0.00 | 36 | 1020.8 |
| 20260905022934 | 76 | 143 | 0.0 | 3.0 | 0.00 | 0.00 | 0.00 | 37 | 1020.1 |
| 20260905022428 | 76 | 150 | 1.0 | 4.0 | 0.00 | 0.00 | 0.00 | 36 | 1019.9 |
| 20260905021921 | 76 | 160 | 1.0 | 4.0 | 0.00 | 0.00 | 0.00 | 36 | 1019.9 |
| 20260905021534 | 76 | 121 | 1.0 | 5.0 | 0.00 | 0.00 | 0.00 | 35 | 1020.5 |
| 20260905020909 | 77 | 167 | 2.0 | 6.0 | 0.00 | 0.00 | 0.00 | 35 | 1019.7 |
| 20260905020403 | 77 | 151 | 2.0 | 7.0 | 0.00 | 0.00 | 0.00 | 35 | 1019.8 |
| 20260905020028 | 77 | 182 | 1.0 | 9.0 | 0.00 | 0.00 | 0.00 | 34 | 1020.5 |
| 20260905015857 | 78 | 153 | 2.0 | 9.0 | 0.00 | 0.00 | 0.00 | 34 | 1019.8 |
| 20260905015352 | 78 | 122 | 3.0 | 9.0 | 0.00 | 0.00 | 0.00 | 33 | 1019.6 |
| 20260905014508 | 79 | 138 | 3.0 | 9.0 | 0.00 | 0.00 | 0.00 | 32 | 1020.4 |
| 20260905013834 | 79 | 164 | 0.0 | 4.0 | 0.00 | 0.00 | 0.00 | 31 | 1019.6 |
| 20260905013328 | 79 | 172 | 1.0 | 5.0 | 0.00 | 0.00 | 0.00 | 31 | 1019.6 |
| 20260905013008 | 79 | 161 | 0.0 | 6.0 | 0.00 | 0.00 | 0.00 | 30 | 1020.3 |
| 20260905012822 | 80 | 149 | 1.0 | 5.0 | 0.00 | 0.00 | 0.00 | 30 | 1019.6 |
| 20260905012315 | 80 | 160 | 1.0 | 5.0 | 0.00 | 0.00 | 0.00 | 30 | 1019.3 |
| 20260905011810 | 80 | 186 | 1.0 | 6.0 | 0.00 | 0.00 | 0.00 | 29 | 1019.5 |
| 20260905011519 | 79 | 157 | 1.0 | 6.0 | 0.00 | 0.00 | 0.00 | 29 | 1020.2 |
| 20260905011305 | 80 | 126 | 1.0 | 6.0 | 0.00 | 0.00 | 0.00 | 29 | 1019.3 |
| 20260905010757 | 80 | 141 | 1.0 | 6.0 | 0.00 | 0.00 | 0.00 | 29 | 1019.3 |
| 20260905010252 | 80 | 162 | 2.0 | 6.0 | 0.00 | 0.00 | 0.00 | 29 | 1019.3 |
| 20260905010029 | 80 | 161 | 1.0 | 7.0 | 0.00 | 0.00 | 0.00 | 28 | 1020.0 |
| 20260905005747 | 80 | 221 | 2.0 | 6.0 | 0.00 | 0.00 | 0.00 | 29 | 1019.2 |
| 20260905005240 | 80 | 143 | 2.0 | 6.0 | 0.00 | 0.00 | 0.00 | 29 | 1019.3 |
| 20260905004733 | 81 | 158 | 3.0 | 8.0 | 0.00 | 0.00 | 0.00 | 28 | 1019.2 |
| 20260905004530 | 80 | 140 | 2.0 | 11.0 | 0.00 | 0.00 | 0.00 | 28 | 1020.0 |
| 20260905004229 | 81 | 145 | 3.0 | 9.0 | 0.00 | 0.00 | 0.00 | 28 | 1019.2 |
| 20260905003721 | 81 | 153 | 5.0 | 11.0 | 0.00 | 0.00 | 0.00 | 28 | 1019.2 |
| 20260905003220 | 81 | 117 | 5.0 | 11.0 | 0.00 | 0.00 | 0.00 | 27 | 1019.2 |
| 20260905003009 | 81 | 187 | 5.0 | 11.0 | 0.00 | 0.00 | 0.00 | 27 | 1020.0 |
| 20260905002721 | 82 | 131 | 4.0 | 10.0 | 0.00 | 0.00 | 0.00 | 27 | 1019.1 |
| 20260905002221 | 82 | 115 | 5.0 | 15.0 | 0.00 | 0.00 | 0.00 | 27 | 1019.0 |
| 20260905001720 | 82 | 153 | 7.0 | 15.0 | 0.00 | 0.00 | 0.00 | 27 | 1019.1 |
| 20260905001515 | 82 | 105 | 8.0 | 18.0 | 0.00 | 0.00 | 0.00 | 26 | 1019.8 |
| 20260905001220 | 82 | 160 | 5.0 | 17.0 | 0.00 | 0.00 | 0.00 | 26 | 1019.0 |
| 20260905000721 | 83 | 157 | 4.0 | 17.0 | 0.00 | 0.00 | 0.00 | 26 | 1019.1 |
| 20260905000220 | 83 | 172 | 5.0 | 11.0 | 0.00 | 0.00 | 0.00 | 26 | 1019.0 |
| 20260905000019 | 83 | 126 | 6.0 | 13.0 | 0.00 | 0.00 | 0.00 | 25 | 1019.7 |
| 20260904235719 | 83 | 129 | 4.0 | 11.0 | 0.00 | 0.00 | 0.00 | 26 | 1019.0 |
| 20260904235220 | 83 | 181 | 4.0 | 12.0 | 0.00 | 0.00 | 0.00 | 25 | 1018.8 |
| 20260904234721 | 84 | 98 | 5.0 | 12.0 | 0.00 | 0.00 | 0.00 | 26 | 1019.0 |
| 20260904234527 | 83 | 149 | 5.0 | 13.0 | 0.00 | 0.00 | 0.00 | 25 | 1019.6 |
| 20260904234218 | 84 | 127 | 4.0 | 12.0 | 0.00 | 0.00 | 0.00 | 26 | 1019.0 |
| 20260904233217 | 84 | 118 | 6.0 | 15.0 | 0.00 | 0.00 | 0.00 | 26 | 1019.0 |
| 20260904233030 | 84 | 151 | 8.0 | 16.0 | 0.00 | 0.00 | 0.00 | 25 | 1019.4 |
| 20260904232716 | 84 | 100 | 5.0 | 11.0 | 0.00 | 0.00 | 0.00 | 25 | 1018.8 |
| 20260904232219 | 85 | 105 | 4.0 | 14.0 | 0.00 | 0.00 | 0.00 | 26 | 1018.8 |
| 20260904231717 | 85 | 122 | 3.0 | 14.0 | 0.00 | 0.00 | 0.00 | 25 | 1018.7 |
| 20260904231513 | 84 | 152 | 4.0 | 11.0 | 0.00 | 0.00 | 0.00 | 24 | 1019.4 |
| 20260904231219 | 85 | 148 | 3.0 | 9.0 | 0.00 | 0.00 | 0.00 | 25 | 1018.7 |
| 20260904230719 | 85 | 107 | 4.0 | 9.0 | 0.00 | 0.00 | 0.00 | 26 | 1018.7 |
| 20260904230216 | 85 | 165 | 4.0 | 10.0 | 0.00 | 0.00 | 0.00 | 25 | 1018.7 |
| 20260904230016 | 85 | 82 | 3.0 | 12.0 | 0.00 | 0.00 | 0.00 | 25 | 1019.2 |
| 20260904225714 | 86 | 148 | 4.0 | 10.0 | 0.00 | 0.00 | 0.00 | 25 | 1018.6 |
| 20260904225215 | 86 | 143 | 3.0 | 11.0 | 0.00 | 0.00 | 0.00 | 25 | 1018.6 |
| 20260904224715 | 85 | 217 | 4.0 | 11.0 | 0.00 | 0.00 | 0.00 | 26 | 1018.6 |
| 20260904224527 | 85 | 159 | 3.0 | 13.0 | 0.00 | 0.00 | 0.00 | 25 | 1019.2 |
| 20260904224216 | 85 | 6 | 4.0 | 12.0 | 0.00 | 0.00 | 0.00 | 26 | 1018.6 |
| 20260904223717 | 85 | 153 | 5.0 | 12.0 | 0.00 | 0.00 | 0.00 | 26 | 1018.7 |
| 20260904223215 | 86 | 148 | 4.0 | 12.0 | 0.00 | 0.00 | 0.00 | 25 | 1018.7 |
| 20260904223028 | 85 | 130 | 4.0 | 13.0 | 0.00 | 0.00 | 0.00 | 25 | 1019.4 |
| 20260904222716 | 86 | 146 | 4.0 | 14.0 | 0.00 | 0.00 | 0.00 | 27 | 1018.7 |
| 20260904222210 | 85 | 169 | 5.0 | 14.0 | 0.00 | 0.00 | 0.00 | 26 | 1018.7 |
| 20260904221543 | 85 | 122 | 5.0 | 15.0 | 0.00 | 0.00 | 0.00 | 26 | 1019.4 |
| 20260904221211 | 86 | 118 | 5.0 | 14.0 | 0.00 | 0.00 | 0.00 | 25 | 1018.8 |
| 20260904220710 | 85 | 102 | 5.0 | 14.0 | 0.00 | 0.00 | 0.00 | 26 | 1018.7 |
| 20260904220212 | 85 | 127 | 6.0 | 13.0 | 0.00 | 0.00 | 0.00 | 25 | 1018.8 |
| 20260904220012 | 85 | 115 | 4.0 | 15.0 | 0.00 | 0.00 | 0.00 | 26 | 1019.5 |
| 20260904215713 | 86 | 199 | 5.0 | 16.0 | 0.00 | 0.00 | 0.00 | 25 | 1018.8 |
| 20260904215212 | 86 | 203 | 4.0 | 16.0 | 0.00 | 0.00 | 0.00 | 26 | 1018.8 |
| 20260904214523 | 85 | 57 | 5.0 | 14.0 | 0.00 | 0.00 | 0.00 | 26 | 1019.6 |
| 20260904213706 | 85 | 60 | 5.0 | 12.0 | 0.00 | 0.00 | 0.00 | 26 | 1019.0 |
| 20260904213206 | 85 | 174 | 4.0 | 11.0 | 0.00 | 0.00 | 0.00 | 26 | 1019.0 |
| 20260904213026 | 84 | 136 | 2.0 | 12.0 | 0.00 | 0.00 | 0.00 | 26 | 1019.6 |
| 20260904212706 | 85 | 179 | 5.0 | 11.0 | 0.00 | 0.00 | 0.00 | 27 | 1019.0 |
| 20260904212208 | 86 | 79 | 5.0 | 15.0 | 0.00 | 0.00 | 0.00 | 25 | 1019.0 |
| 20260904211709 | 86 | 86 | 5.0 | 15.0 | 0.00 | 0.00 | 0.00 | 26 | 1019.1 |
| 20260904211535 | 86 | 71 | 4.0 | 16.0 | 0.00 | 0.00 | 0.00 | 25 | 1019.8 |
| 20260904210207 | 87 | 166 | 5.0 | 11.0 | 0.00 | 0.00 | 0.00 | 25 | 1019.2 |
| 20260904210042 | 86 | 84 | 3.0 | 12.0 | 0.00 | 0.00 | 0.00 | 26 | 1019.9 |
| 20260904205708 | 87 | 84 | 5.0 | 11.0 | 0.00 | 0.00 | 0.00 | 26 | 1019.2 |
| 20260904205208 | 86 | 282 | 4.0 | 10.0 | 0.00 | 0.00 | 0.00 | 26 | 1019.2 |
| 20260904204707 | 85 | 243 | 5.0 | 9.0 | 0.00 | 0.00 | 0.00 | 27 | 1019.2 |
| 20260904204516 | 84 | 80 | 5.0 | 10.0 | 0.00 | 0.00 | 0.00 | 26 | 1020.1 |
| 20260904204206 | 84 | 34 | 4.0 | 9.0 | 0.00 | 0.00 | 0.00 | 27 | 1019.3 |
| 20260904203707 | 84 | 124 | 3.0 | 9.0 | 0.00 | 0.00 | 0.00 | 26 | 1019.5 |
| 20260904203207 | 84 | 162 | 4.0 | 12.0 | 0.00 | 0.00 | 0.00 | 28 | 1019.5 |
| 20260904203030 | 84 | 281 | 3.0 | 13.0 | 0.00 | 0.00 | 0.00 | 26 | 1020.2 |
| 20260904202706 | 84 | 167 | 5.0 | 12.0 | 0.00 | 0.00 | 0.00 | 25 | 1019.5 |
| 20260904202207 | 85 | 155 | 4.0 | 11.0 | 0.00 | 0.00 | 0.00 | 26 | 1019.3 |
| 20260904201708 | 86 | 160 | 2.0 | 9.0 | 0.00 | 0.00 | 0.00 | 25 | 1019.5 |
| 20260904201531 | 85 | 155 | 2.0 | 5.0 | 0.00 | 0.00 | 0.00 | 26 | 1020.2 |
| 20260904201208 | 85 | 58 | 1.0 | 4.0 | 0.00 | 0.00 | 0.00 | 24 | 1019.5 |
| 20260904200705 | 85 | 165 | 1.0 | 4.0 | 0.00 | 0.00 | 0.00 | 24 | 1019.8 |
| 20260904200204 | 84 | 70 | 3.0 | 7.0 | 0.00 | 0.00 | 0.00 | 27 | 1019.7 |
| 20260904200031 | 84 | 159 | 2.0 | 8.0 | 0.00 | 0.00 | 0.00 | 24 | 1020.3 |
| 20260904195703 | 84 | 166 | 3.0 | 7.0 | 0.00 | 0.00 | 0.00 | 24 | 1019.7 |
| 20260904195203 | 85 | 252 | 3.0 | 7.0 | 0.00 | 0.00 | 0.00 | 24 | 1019.7 |
| 20260904194702 | 85 | 182 | 4.0 | 8.0 | 0.00 | 0.00 | 0.00 | 25 | 1019.8 |
| 20260904194618 | 85 | 162 | 4.0 | 9.0 | 0.00 | 0.00 | 0.00 | 23 | 1020.5 |
| 20260904194203 | 86 | 142 | 4.0 | 9.0 | 0.00 | 0.00 | 0.00 | 25 | 1019.8 |
| 20260904193703 | 86 | 167 | 5.0 | 10.0 | 0.00 | 0.00 | 0.00 | 25 | 1019.9 |
| 20260904193034 | 85 | 161 | 5.0 | 10.0 | 0.00 | 0.00 | 0.00 | 24 | 1020.5 |
| 20260904192701 | 86 | 65 | 4.0 | 9.0 | 0.00 | 0.00 | 0.00 | 25 | 1020.1 |
| 20260904192202 | 86 | 82 | 4.0 | 8.0 | 0.00 | 0.00 | 0.00 | 25 | 1020.1 |
| 20260904191700 | 86 | 117 | 3.0 | 8.0 | 0.00 | 0.00 | 0.00 | 24 | 1020.1 |
| 20260904191524 | 86 | 87 | 4.0 | 9.0 | 0.00 | 0.00 | 0.00 | 23 | 1020.7 |
| 20260904191159 | 86 | 101 | 3.0 | 8.0 | 0.00 | 0.00 | 0.00 | 23 | 1020.1 |
| 20260904190158 | 87 | 135 | 3.0 | 9.0 | 0.00 | 0.00 | 0.00 | 23 | 1020.1 |
| 20260904190032 | 86 | 283 | 4.0 | 9.0 | 0.00 | 0.00 | 0.00 | 23 | 1020.8 |
| 20260904185658 | 87 | 217 | 2.0 | 8.0 | 0.00 | 0.00 | 0.00 | 23 | 1020.3 |
| 20260904184657 | 85 | 135 | 4.0 | 11.0 | 0.00 | 0.00 | 0.00 | 24 | 1020.3 |
| 20260904184534 | 85 | 136 | 4.0 | 11.0 | 0.00 | 0.00 | 0.00 | 23 | 1020.9 |
| 20260904184152 | 86 | 51 | 2.0 | 6.0 | 0.00 | 0.00 | 0.00 | 24 | 1020.2 |
| 20260904183652 | 86 | 154 | 1.0 | 6.0 | 0.00 | 0.00 | 0.00 | 25 | 1020.3 |
| 20260904183152 | 85 | 27 | 2.0 | 5.0 | 0.00 | 0.00 | 0.00 | 24 | 1020.4 |
| 20260904183034 | 85 | 202 | 2.0 | 5.0 | 0.00 | 0.00 | 0.00 | 23 | 1021.3 |
| 20260904182653 | 85 | 11 | 2.0 | 6.0 | 0.00 | 0.00 | 0.00 | 26 | 1020.4 |
| 20260904182153 | 86 | 39 | 2.0 | 6.0 | 0.00 | 0.00 | 0.00 | 26 | 1020.6 |
| 20260904181652 | 86 | 154 | 2.0 | 6.0 | 0.00 | 0.00 | 0.00 | 22 | 1020.7 |
| 20260904181524 | 85 | 130 | 1.0 | 10.0 | 0.00 | 0.00 | 0.00 | 23 | 1021.3 |
| 20260904180005 | 85 | 222 | 1.0 | 8.0 | 0.00 | 0.00 | 0.00 | 23 | 1021.4 |
| 20260904175649 | 85 | 309 | 2.0 | 8.0 | 0.00 | 0.00 | 0.00 | 24 | 1020.9 |
| 20260904175149 | 85 | 154 | 4.0 | 11.0 | 0.00 | 0.00 | 0.00 | 25 | 1020.9 |
| 20260904174647 | 84 | 105 | 3.0 | 11.0 | 0.00 | 0.00 | 0.00 | 25 | 1020.9 |
| 20260904174510 | 84 | 67 | 5.0 | 11.0 | 0.00 | 0.00 | 0.00 | 23 | 1021.7 |
| 20260904174146 | 84 | 74 | 2.0 | 6.0 | 0.00 | 0.00 | 0.00 | 27 | 1021.0 |
| 20260904173646 | 84 | 85 | 3.0 | 8.0 | 0.00 | 0.00 | 0.00 | 25 | 1020.9 |
| 20260904173148 | 84 | 123 | 3.0 | 8.0 | 0.00 | 0.00 | 0.00 | 24 | 1021.0 |
| 20260904173018 | 83 | 74 | 2.0 | 9.0 | 0.00 | 0.00 | 0.00 | 23 | 1021.8 |
| 20260904172148 | 85 | 141 | 2.0 | 5.0 | 0.00 | 0.00 | 0.00 | 24 | 1021.0 |
| 20260904171643 | 84 | 116 | 2.0 | 8.0 | 0.00 | 0.00 | 0.00 | 22 | 1021.0 |
| 20260904171525 | 84 | 139 | 1.0 | 9.0 | 0.00 | 0.00 | 0.00 | 22 | 1021.9 |
| 20260904170630 | 84 | 122 | 2.0 | 6.0 | 0.00 | 0.00 | 0.00 | 23 | 1021.0 |
| 20260904170124 | 84 | 67 | 1.0 | 6.0 | 0.00 | 0.00 | 0.00 | 25 | 1021.0 |
| 20260904170028 | 83 | 100 | 1.0 | 4.0 | 0.00 | 0.00 | 0.00 | 22 | 1021.8 |
| 20260904165618 | 83 | 98 | 1.0 | 4.0 | 0.00 | 0.00 | 0.00 | 25 | 1021.0 |
| 20260904165113 | 83 | 251 | 1.0 | 4.0 | 0.00 | 0.00 | 0.00 | 22 | 1021.0 |
| 20260904164606 | 83 | 308 | 1.0 | 3.0 | 0.00 | 0.00 | 0.00 | 22 | 1021.0 |
| 20260904164509 | 83 | 192 | 0.0 | 3.0 | 0.00 | 0.00 | 0.00 | 22 | 1021.8 |
| 20260904164059 | 83 | 188 | 2.0 | 4.0 | 0.00 | 0.00 | 0.00 | 23 | 1021.2 |
| 20260904163554 | 83 | 77 | 2.0 | 4.0 | 0.00 | 0.00 | 0.00 | 23 | 1021.2 |
| 20260904163048 | 84 | 60 | 2.0 | 4.0 | 0.00 | 0.00 | 0.00 | 25 | 1021.0 |
| 20260904163012 | 83 | 73 | 1.0 | 5.0 | 0.00 | 0.00 | 0.00 | 24 | 1021.8 |
| 20260904162542 | 83 | 146 | 2.0 | 4.0 | 0.00 | 0.00 | 0.00 | 23 | 1021.0 |
| 20260904161530 | 83 | 124 | 2.0 | 4.0 | 0.00 | 0.00 | 0.00 | 25 | 1021.0 |
| 20260904161517 | 83 | 109 | 2.0 | 4.0 | 0.00 | 0.00 | 0.00 | 25 | 1021.7 |
| 20260904161026 | 84 | 82 | 1.0 | 3.0 | 0.00 | 0.00 | 0.00 | 24 | 1020.9 |
| 20260904160518 | 84 | 101 | 1.0 | 3.0 | 0.00 | 0.00 | 0.00 | 24 | 1020.8 |
| 20260904160028 | 83 | 67 | 0.0 | 3.0 | 0.00 | 0.00 | 0.00 | 25 | 1021.5 |
| 20260904155506 | 84 | 75 | 0.0 | 2.0 | 0.00 | 0.00 | 0.00 | 24 | 1020.8 |
| 20260904154527 | 82 | 271 | 1.0 | 4.0 | 0.00 | 0.00 | 0.00 | 22 | 1021.5 |
| 20260904153948 | 83 | 289 | 1.0 | 4.0 | 0.00 | 0.00 | 0.00 | 23 | 1020.8 |
| 20260904153448 | 82 | 103 | 1.0 | 4.0 | 0.00 | 0.00 | 0.00 | 24 | 1020.8 |
| 20260904153021 | 82 | 250 | 1.0 | 3.0 | 0.00 | 0.00 | 0.00 | 24 | 1021.5 |
| 20260904152949 | 82 | 276 | 0.0 | 3.0 | 0.00 | 0.00 | 0.00 | 25 | 1020.7 |
| 20260904152448 | 81 | 172 | 1.0 | 3.0 | 0.00 | 0.00 | 0.00 | 25 | 1020.8 |
| 20260904151950 | 81 | 15 | 1.0 | 2.0 | 0.00 | 0.00 | 0.00 | 27 | 1020.8 |
| 20260904151531 | 80 | 65 | 1.0 | 4.0 | 0.00 | 0.00 | 0.00 | 25 | 1021.4 |
| 20260904151449 | 80 | 60 | 1.0 | 4.0 | 0.00 | 0.00 | 0.00 | 26 | 1020.8 |
| 20260904150443 | 79 | 294 | 1.0 | 5.0 | 0.00 | 0.00 | 0.00 | 27 | 1020.8 |
| 20260904150028 | 78 | 64 | 1.0 | 4.0 | 0.00 | 0.00 | 0.00 | 30 | 1021.4 |
| 20260904145944 | 78 | 56 | 1.0 | 4.0 | 0.00 | 0.00 | 0.00 | 29 | 1020.8 |
| 20260904145442 | 78 | 302 | 1.0 | 5.0 | 0.00 | 0.00 | 0.00 | 30 | 1020.8 |
| 20260904144528 | 77 | 311 | 0.0 | 8.0 | 0.00 | 0.00 | 0.00 | 28 | 1021.4 |
| 20260904144446 | 78 | 316 | 2.0 | 7.0 | 0.00 | 0.00 | 0.00 | 28 | 1020.8 |
| 20260904143942 | 77 | 309 | 2.0 | 7.0 | 0.00 | 0.00 | 0.00 | 28 | 1020.8 |
| 20260904143442 | 77 | 299 | 1.0 | 5.0 | 0.00 | 0.00 | 0.00 | 30 | 1020.8 |
| 20260904143030 | 76 | 323 | 1.0 | 5.0 | 0.00 | 0.00 | 0.00 | 28 | 1021.3 |
| 20260904142942 | 77 | 336 | 0.0 | 5.0 | 0.00 | 0.00 | 0.00 | 29 | 1020.8 |
| 20260904142442 | 76 | 359 | 1.0 | 4.0 | 0.00 | 0.00 | 0.00 | 32 | 1020.7 |
| 20260904141943 | 75 | 312 | 1.0 | 4.0 | 0.00 | 0.00 | 0.00 | 30 | 1020.7 |
| 20260904141511 | 74 | 277 | 1.0 | 4.0 | 0.00 | 0.00 | 0.00 | 29 | 1021.3 |
| 20260904141443 | 75 | 328 | 1.0 | 4.0 | 0.00 | 0.00 | 0.00 | 31 | 1020.7 |
| 20260904140937 | 74 | 279 | 0.0 | 4.0 | 0.00 | 0.00 | 0.00 | 31 | 1020.7 |
| 20260904140017 | 73 | 328 | 0.0 | 3.0 | 0.00 | 0.00 | 0.00 | 32 | 1021.0 |
| 20260904135925 | 73 | 321 | 0.0 | 3.0 | 0.00 | 0.00 | 0.00 | 33 | 1020.6 |
| 20260904135419 | 72 | 323 | 1.0 | 4.0 | 0.00 | 0.00 | 0.00 | 34 | 1020.4 |
| 20260904134913 | 71 | 321 | 0.0 | 4.0 | 0.00 | 0.00 | 0.00 | 35 | 1020.4 |
| 20260904134526 | 70 | 295 | 0.0 | 2.0 | 0.00 | 0.00 | 0.00 | 38 | 1020.8 |
| 20260904133901 | 69 | 316 | 0.0 | 2.0 | 0.00 | 0.00 | 0.00 | 39 | 1020.3 |
| 20260904133356 | 68 | 316 | 0.0 | 4.0 | 0.00 | 0.00 | 0.00 | 38 | 1020.2 |
| 20260904133028 | 67 | 355 | 0.0 | 4.0 | 0.00 | 0.00 | 0.00 | 39 | 1020.7 |
| 20260904132850 | 67 | 6 | 0.0 | 4.0 | 0.00 | 0.00 | 0.00 | 42 | 1020.3 |
| 20260904131511 | 64 | 331 | 0.0 | 1.0 | 0.00 | 0.00 | 0.00 | 44 | 1020.4 |
| 20260904130824 | 64 | 313 | 0.0 | 1.0 | 0.00 | 0.00 | 0.00 | 46 | 1019.7 |
| 20260904130319 | 64 | 313 | 0.0 | 1.0 | 0.00 | 0.00 | 0.00 | 43 | 1019.6 |
| 20260904130014 | 64 | 338 | 0.0 | 0.0 | 0.00 | 0.00 | 0.00 | 42 | 1020.0 |
| 20260904125812 | 65 | 345 | 0.0 | 0.0 | 0.00 | 0.00 | 0.00 | 43 | 1019.5 |
| 20260904125307 | 65 | 333 | 0.0 | 0.0 | 0.00 | 0.00 | 0.00 | 43 | 1019.3 |
| 20260904124801 | 65 | 333 | 0.0 | 2.0 | 0.00 | 0.00 | 0.00 | 39 | 1019.5 |
| 20260904124519 | 64 | 327 | 0.0 | 3.0 | 0.00 | 0.00 | 0.00 | 38 | 1019.8 |
| 20260904124254 | 65 | 343 | 0.0 | 3.0 | 0.00 | 0.00 | 0.00 | 38 | 1019.3 |
| 20260904123750 | 64 | 329 | 0.0 | 3.0 | 0.00 | 0.00 | 0.00 | 39 | 1019.2 |
| 20260904123026 | 63 | 295 | 0.0 | 5.0 | 0.00 | 0.00 | 0.00 | 39 | 1019.7 |
| 20260904122736 | 63 | 322 | 0.0 | 5.0 | 0.00 | 0.00 | 0.00 | 40 | 1019.2 |
| 20260904121725 | 62 | 304 | 0.0 | 3.0 | 0.00 | 0.00 | 0.00 | 39 | 1019.1 |
| 20260904121536 | 62 | 311 | 0.0 | 4.0 | 0.00 | 0.00 | 0.00 | 39 | 1019.6 |
| 20260904121219 | 62 | 319 | 1.0 | 4.0 | 0.00 | 0.00 | 0.00 | 40 | 1019.1 |
| 20260904120714 | 62 | 290 | 0.0 | 4.0 | 0.00 | 0.00 | 0.00 | 39 | 1018.8 |
| 20260904120207 | 62 | 338 | 0.0 | 4.0 | 0.00 | 0.00 | 0.00 | 40 | 1018.8 |
| 20260904120037 | 61 | 317 | 0.0 | 4.0 | 0.00 | 0.00 | 0.00 | 40 | 1019.3 |
| 20260904115701 | 61 | 353 | 0.0 | 4.0 | 0.00 | 0.00 | 0.00 | 42 | 1018.7 |
| 20260904115156 | 60 | 335 | 0.0 | 2.0 | 0.00 | 0.00 | 0.00 | 43 | 1018.7 |
| 20260904114649 | 60 | 337 | 0.0 | 1.0 | 0.00 | 0.00 | 0.00 | 45 | 1018.7 |
| 20260904114516 | 59 | 328 | 0.0 | 1.0 | 0.00 | 0.00 | 0.00 | 44 | 1019.2 |
| 20260904114144 | 59 | 333 | 0.0 | 1.0 | 0.00 | 0.00 | 0.00 | 47 | 1018.6 |
| 20260904113131 | 60 | 342 | 0.0 | 0.0 | 0.00 | 0.00 | 0.00 | 50 | 1018.6 |
| 20260904113033 | 60 | 336 | 0.0 | 1.0 | 0.00 | 0.00 | 0.00 | 49 | 1019.3 |
| 20260904112119 | 61 | 342 | 0.0 | 1.0 | 0.00 | 0.00 | 0.00 | 46 | 1018.7 |
| 20260904111613 | 61 | 342 | 0.0 | 0.0 | 0.00 | 0.00 | 0.00 | 46 | 1018.6 |
| 20260904111528 | 61 | 336 | 0.0 | 0.0 | 0.00 | 0.00 | 0.00 | 45 | 1019.1 |
| 20260904111108 | 61 | 342 | 0.0 | 1.0 | 0.00 | 0.00 | 0.00 | 43 | 1018.6 |
| 20260904110602 | 61 | 342 | 0.0 | 2.0 | 0.00 | 0.00 | 0.00 | 45 | 1018.5 |
| 20260904110055 | 59 | 334 | 0.0 | 2.0 | 0.00 | 0.00 | 0.00 | 45 | 1018.5 |
| 20260904110031 | 59 | 333 | 0.0 | 2.0 | 0.00 | 0.00 | 0.00 | 46 | 1019.0 |
| 20260904105549 | 57 | 321 | 0.0 | 2.0 | 0.00 | 0.00 | 0.00 | 48 | 1018.4 |
| 20260904105044 | 56 | 328 | 0.0 | 1.0 | 0.00 | 0.00 | 0.00 | 53 | 1018.4 |
| 20260904104537 | 56 | 359 | 0.0 | 1.0 | 0.00 | 0.00 | 0.00 | 57 | 1018.2 |
| 20260904104533 | 55 | 352 | 0.0 | 1.0 | 0.00 | 0.00 | 0.00 | 58 | 1018.9 |
| 20260904103525 | 56 | 330 | 0.0 | 1.0 | 0.00 | 0.00 | 0.00 | 60 | 1018.1 |
| 20260904103026 | 56 | 321 | 0.0 | 1.0 | 0.00 | 0.00 | 0.00 | 64 | 1018.2 |
| 20260904103022 | 55 | 316 | 0.0 | 1.0 | 0.00 | 0.00 | 0.00 | 63 | 1018.7 |
| 20260904102522 | 56 | 322 | 0.0 | 0.0 | 0.00 | 0.00 | 0.00 | 66 | 1018.2 |
| 20260904101527 | 57 | 317 | 0.0 | 0.0 | 0.00 | 0.00 | 0.00 | 63 | 1018.4 |
| 20260904101524 | 57 | 322 | 0.0 | 0.0 | 0.00 | 0.00 | 0.00 | 64 | 1018.0 |
| 20260904101019 | 58 | 322 | 0.0 | 1.0 | 0.00 | 0.00 | 0.00 | 62 | 1018.0 |
| 20260904100517 | 58 | 322 | 0.0 | 1.0 | 0.00 | 0.00 | 0.00 | 62 | 1018.1 |
| 20260904100030 | 57 | 325 | 0.0 | 3.0 | 0.00 | 0.00 | 0.00 | 62 | 1018.5 |
| 20260904100016 | 58 | 330 | 0.0 | 1.0 | 0.00 | 0.00 | 0.00 | 62 | 1018.1 |
| 20260904095515 | 58 | 323 | 1.0 | 3.0 | 0.00 | 0.00 | 0.00 | 63 | 1018.0 |
| 20260904094533 | 57 | 319 | 1.0 | 3.0 | 0.00 | 0.00 | 0.00 | 66 | 1018.4 |
| 20260904094008 | 56 | 322 | 0.0 | 2.0 | 0.00 | 0.00 | 0.00 | 68 | 1018.0 |
| 20260904093506 | 56 | 335 | 0.0 | 2.0 | 0.00 | 0.00 | 0.00 | 69 | 1018.0 |
| 20260904093036 | 55 | 5 | 0.0 | 0.0 | 0.00 | 0.00 | 0.00 | 69 | 1018.3 |
| 20260904093003 | 55 | 1 | 0.0 | 0.0 | 0.00 | 0.00 | 0.00 | 70 | 1017.9 |
| 20260904092505 | 55 | 1 | 0.0 | 0.0 | 0.00 | 0.00 | 0.00 | 70 | 1018.0 |
| 20260904092006 | 55 | 1 | 0.0 | 0.0 | 0.00 | 0.00 | 0.00 | 69 | 1017.9 |
| 20260904091524 | 55 | 5 | 0.0 | 1.0 | 0.00 | 0.00 | 0.00 | 68 | 1018.2 |
| 20260904091504 | 56 | 1 | 0.0 | 0.0 | 0.00 | 0.00 | 0.00 | 69 | 1017.7 |
| 20260904091004 | 56 | 1 | 0.0 | 1.0 | 0.00 | 0.00 | 0.00 | 68 | 1017.7 |
| 20260904090504 | 56 | 1 | 0.0 | 1.0 | 0.00 | 0.00 | 0.00 | 68 | 1017.7 |
| 20260904090005 | 56 | 353 | 0.0 | 1.0 | 0.00 | 0.00 | 0.00 | 69 | 1017.7 |
| 20260904085503 | 55 | 321 | 0.0 | 0.0 | 0.00 | 0.00 | 0.00 | 70 | 1017.7 |
| 20260904085001 | 55 | 345 | 0.0 | 0.0 | 0.00 | 0.00 | 0.00 | 70 | 1017.9 |
| 20260904084508 | 55 | 338 | 0.0 | 0.0 | 0.00 | 0.00 | 0.00 | 69 | 1018.3 |
| 20260904084502 | 55 | 345 | 0.0 | 0.0 | 0.00 | 0.00 | 0.00 | 69 | 1017.9 |
| 20260904083957 | 56 | 345 | 0.0 | 0.0 | 0.00 | 0.00 | 0.00 | 69 | 1017.9 |
| 20260904083004 | 55 | 322 | 0.0 | 0.0 | 0.00 | 0.00 | 0.00 | 68 | 1018.5 |
| 20260904082457 | 56 | 328 | 0.0 | 0.0 | 0.00 | 0.00 | 0.00 | 69 | 1018.1 |
| 20260904081957 | 56 | 328 | 0.0 | 0.0 | 0.00 | 0.00 | 0.00 | 68 | 1018.1 |
| 20260904081514 | 56 | 322 | 0.0 | 0.0 | 0.00 | 0.00 | 0.00 | 67 | 1018.5 |
| 20260904081455 | 56 | 328 | 0.0 | 0.0 | 0.00 | 0.00 | 0.00 | 67 | 1018.0 |
| 20260904080958 | 57 | 328 | 0.0 | 0.0 | 0.00 | 0.00 | 0.00 | 66 | 1018.0 |
| 20260904080457 | 57 | 328 | 0.0 | 1.0 | 0.00 | 0.00 | 0.00 | 65 | 1018.0 |
| 20260904080008 | 57 | 324 | 0.0 | 1.0 | 0.00 | 0.00 | 0.00 | 64 | 1018.5 |
| 20260904075956 | 58 | 330 | 0.0 | 1.0 | 0.00 | 0.00 | 0.00 | 65 | 1018.1 |
| 20260904074509 | 58 | 335 | 0.0 | 0.0 | 0.00 | 0.00 | 0.00 | 63 | 1018.6 |
| 20260904074455 | 58 | 341 | 0.0 | 0.0 | 0.00 | 0.00 | 0.00 | 63 | 1018.2 |
| 20260904073959 | 59 | 341 | 0.0 | 0.0 | 0.00 | 0.00 | 0.00 | 63 | 1018.1 |
| 20260904073456 | 59 | 341 | 0.0 | 0.0 | 0.00 | 0.00 | 0.00 | 62 | 1018.1 |
| 20260904073009 | 60 | 335 | 0.0 | 1.0 | 0.00 | 0.00 | 0.00 | 60 | 1018.7 |
| 20260904072957 | 60 | 341 | 0.0 | 0.0 | 0.00 | 0.00 | 0.00 | 61 | 1018.2 |
| 20260904072455 | 61 | 341 | 0.0 | 2.0 | 0.00 | 0.00 | 0.00 | 59 | 1018.4 |
| 20260904071957 | 61 | 338 | 0.0 | 2.0 | 0.00 | 0.00 | 0.00 | 58 | 1018.4 |
| 20260904071510 | 60 | 329 | 0.0 | 2.0 | 0.00 | 0.00 | 0.00 | 58 | 1018.6 |
| 20260904070957 | 61 | 325 | 0.0 | 2.0 | 0.00 | 0.00 | 0.00 | 60 | 1018.4 |
| 20260904070457 | 61 | 333 | 0.0 | 2.0 | 0.00 | 0.00 | 0.00 | 59 | 1018.4 |
| 20260904070008 | 60 | 311 | 0.0 | 1.0 | 0.00 | 0.00 | 0.00 | 59 | 1018.8 |
| 20260904065958 | 61 | 316 | 0.0 | 1.0 | 0.00 | 0.00 | 0.00 | 59 | 1018.5 |
| 20260904064511 | 59 | 315 | 0.0 | 0.0 | 0.00 | 0.00 | 0.00 | 61 | 1018.9 |
| 20260904064458 | 59 | 320 | 0.0 | 0.0 | 0.00 | 0.00 | 0.00 | 62 | 1018.6 |
| 20260904063958 | 60 | 320 | 0.0 | 0.0 | 0.00 | 0.00 | 0.00 | 62 | 1018.7 |
| 20260904063013 | 60 | 315 | 0.0 | 0.0 | 0.00 | 0.00 | 0.00 | 60 | 1019.1 |
| 20260904062457 | 61 | 320 | 0.0 | 0.0 | 0.00 | 0.00 | 0.00 | 59 | 1018.6 |
| 20260904061956 | 61 | 320 | 0.0 | 0.0 | 0.00 | 0.00 | 0.00 | 58 | 1018.6 |
| 20260904061519 | 61 | 315 | 0.0 | 0.0 | 0.00 | 0.00 | 0.00 | 57 | 1019.1 |
| 20260904061455 | 61 | 320 | 0.0 | 0.0 | 0.00 | 0.00 | 0.00 | 57 | 1018.7 |
| 20260904060956 | 62 | 320 | 0.0 | 0.0 | 0.00 | 0.00 | 0.00 | 57 | 1018.6 |
| 20260904060455 | 62 | 320 | 0.0 | 0.0 | 0.00 | 0.00 | 0.00 | 56 | 1018.7 |
| 20260904060012 | 62 | 315 | 0.0 | 0.0 | 0.00 | 0.00 | 0.00 | 55 | 1019.2 |
| 20260904055956 | 63 | 320 | 0.0 | 0.0 | 0.00 | 0.00 | 0.00 | 55 | 1018.7 |